Masbate, Philippines

9:32 PM PHT on September 27, 2016 (GMT +0800)
Mactan-Cebu International

Weather History for RPVM - October, 2012

Change the Weather History Date:

Tuesday, October 23, 2012

  Actual Average Record
Temperature  
Mean Temperature 82 °F -  
Max Temperature 89 °F 86 °F 93 °F (2014)
Min Temperature 75 °F 76 °F 74 °F (2013)
Cooling Degree Days 17    
Growing Degree Days 32 (Base 50)    
Moisture  
Dew Point 76 °F    
Average Humidity 80    
Maximum Humidity 94    
Minimum Humidity 59    
Precipitation  
Precipitation 0.55 in - - ()
Sea Level Pressure  
Sea Level Pressure 29.73 in    
Wind  
Wind Speed 6 mph ()    
Max Wind Speed 22 mph    
Max Gust Speed -    
Visibility 7.4 miles    
Events Rain    
Averages and records for this station are not official NWS values.
T = Trace of Precipitation, MM = Missing Value Source: Averaged Metar Reports

Daily Weather History Graph

Daily Weather History Graph

Search for Another Location

Airport or City:

Trip Planner

Search our weather history database for the weather conditions in past years. The results will help you decide how hot, cold, wet, or windy it might be!

Date:

Astronomy

Oct. 23, 2012 Rise Set
Actual Time 5:33 AM PHT 5:23 PM PHT
Civil Twilight 5:11 AM PHT 5:44 PM PHT
Nautical Twilight 4:47 AM PHT 6:09 PM PHT
Astronomical Twilight 4:22 AM PHT 6:34 PM PHT
Moon 12:43 PM PHT (10/23) No Moon Set
Length of Visible Light 12h 32m
Length of Day
11h 49m
First Quarter, 61% of the Moon is Illuminated
Oct 23
First Quarter
Oct 30
Full
Nov 7
Last Quarter
Nov 14
New
Nov 20
First Quarter

Hourly Weather History & Observations

Time (PHT) Temp. Heat Index Dew Point Humidity Pressure Visibility Wind Dir Wind Speed Gust Speed Precip Events Conditions
12:00 AM 78.8 °F - 75.2 °F 89% 29.77 in 6.2 mi North 4.6 mph - N/A   Mostly Cloudy
1:00 AM 78.8 °F - 75.2 °F 89% 29.74 in 6.2 mi NNW 4.6 mph - N/A   Mostly Cloudy
2:00 AM 78 °F - 76 °F 93% 29.82 in 11 mi Calm Calm - -   Overcast
2:00 AM 78.8 °F - 75.2 °F 89% 29.74 in 6.2 mi NNW 4.6 mph - N/A   Mostly Cloudy
3:00 AM 78.8 °F - 75.2 °F 89% 29.74 in 6.2 mi NNW 4.6 mph - N/A   Mostly Cloudy
4:00 AM 77.0 °F - 75.2 °F 94% 29.74 in 6.2 mi NNW 4.6 mph - N/A   Mostly Cloudy
5:00 AM 78.8 °F - 75.2 °F 89% 29.74 in 6.2 mi North 4.6 mph - N/A   Mostly Cloudy
6:00 AM 78.8 °F - 77.0 °F 94% 29.74 in 6.2 mi North 11.5 mph - N/A   Overcast
7:00 AM 80.6 °F 87.1 °F 77.0 °F 89% 29.77 in 6.2 mi NNW 4.6 mph - N/A   Mostly Cloudy
8:00 AM 80 °F - 76 °F 85% 29.81 in 12 mi NE 4.5 mph - -   Overcast
8:00 AM 82.4 °F 90.9 °F 77.0 °F 84% 29.77 in 6.2 mi North 6.9 mph - N/A   Scattered Clouds
9:00 AM 84.2 °F 94.1 °F 77.0 °F 79% 29.77 in 6.2 mi North 11.5 mph - N/A   Mostly Cloudy
10:00 AM 86.0 °F 96.9 °F 77.0 °F 74% 29.77 in 6.2 mi North 13.8 mph - N/A   Scattered Clouds
11:00 AM 87.8 °F 99.7 °F 77.0 °F 70% 29.74 in 6.2 mi North 13.8 mph - N/A   Scattered Clouds
12:00 PM 89.6 °F 99.8 °F 75.2 °F 62% 29.71 in 6.2 mi NNE 18.4 mph - N/A   Mostly Cloudy
1:00 PM 89.6 °F 99.8 °F 75.2 °F 62% 29.68 in 6.2 mi NNE 18.4 mph - N/A   Mostly Cloudy
2:00 PM 87 °F - 82 °F 80% 29.71 in 19 mi North 4.5 mph - -   Partly Cloudy
2:00 PM 89.6 °F 98.2 °F 73.4 °F 59% 29.65 in 6.2 mi North 21.9 mph - N/A   Mostly Cloudy
3:00 PM 89.6 °F 99.8 °F 75.2 °F 62% 29.65 in 6.2 mi NNE 13.8 mph - N/A   Mostly Cloudy
4:00 PM 87.8 °F 99.7 °F 77.0 °F 70% 29.65 in 6.2 mi North 9.2 mph - N/A   Mostly Cloudy
5:00 PM 83 °F - 78 °F 79% 29.69 in 16 mi ENE 4.5 mph - -   Scattered Clouds
5:00 PM 86.0 °F 96.9 °F 77.0 °F 74% 29.68 in 6.2 mi NNW 9.2 mph - N/A   Mostly Cloudy
6:00 PM 84.2 °F 94.1 °F 77.0 °F 79% 29.68 in 6.2 mi NNE 6.9 mph - N/A   Mostly Cloudy
7:00 PM 84.2 °F 94.1 °F 77.0 °F 79% 29.71 in 6.2 mi NNE 9.2 mph - N/A   Mostly Cloudy
8:00 PM 82.4 °F 90.9 °F 77.0 °F 84% 29.74 in 4.3 mi NE 4.6 mph - N/A Rain Light Rain
9:00 PM 78.8 °F - 77.0 °F 94% 29.74 in 6.2 mi North 2.3 mph - N/A   Overcast
11:00 PM 80.6 °F 85.4 °F 73.4 °F 79% 29.74 in 6.2 mi NNW 9.2 mph - N/A   Mostly Cloudy